Location: Namasale
(1.5000°N, 32.6167°E)
Time: 22:58:28
(UTC+00:00)

Vanguard 3 - Pass Details

Date: 09 December 2021
Orbit: 508 x 3260 km, 33.3° (Epoch: 27 January)

Event Time Altitude Azimuth Distance (km) Brightness Sun altitude
Exits shadow 00:37:25 24° 4° (N) 5,078 10.9 -42.4°
Drops below altitude 10° 00:47:15 10° 32° (NNE) 6,071 11.6 -40.2°
Sets 00:53:10 0° 44° (NE) 6,867 12.0 -38.9°
